Theta_e
321 321 321 316 310 309 310 310 309 308 311 314 315 319 321 321 321 320 318 318 319 319 319 318 317 318 317 317 316 317 317 317 317 318 319 319 318 319 319 320 320 320 320 320 319 319 319 319 319 319 319 318 318 319 320 320 322 322 321 323 325 326 325 321 320 322 323 323 323 324 325 324 322 322 323 324 323 322 322 321 323 323 321 324 324 321 332
321 321 322 318 312 309 310 310 309 307 309 312 316 321 324 322 322 321 319 318 319 319 319 318 317 317 317 316 316 316 317 318 318 318 319 319 318 318 319 320 321 320 320 320 320 319 319 319 319 319 319 319 319 319 320 320 323 323 322 324 325 325 326 324 320 319 320 320 321 321 322 322 322 322 323 325 325 324 324 323 325 324 321 324 322 319 332
321 320 322 320 314 309 309 310 309 308 307 310 315 320 323 321 321 320 319 318 318 318 318 318 317 317 317 316 316 316 317 317 318 318 319 319 319 319 319 320 320 320 320 320 319 319 319 319 319 320 319 319 319 319 319 320 324 326 325 325 325 324 326 326 322 318 317 318 319 319 320 321 323 324 325 325 325 324 324 323 322 321 321 324 321 321 336
321 320 321 322 317 310 309 310 310 308 307 309 313 318 322 321 320 319 319 318 317 317 317 317 317 317 317 317 316 316 317 317 317 318 319 319 320 319 320 320 320 320 320 320 319 319 319 320 320 320 319 319 319 318 319 320 323 326 326 324 324 326 326 327 326 322 321 322 324 324 324 322 321 323 326 325 325 327 326 322 319 320 323 324 324 326 337
322 321 321 322 319 312 309 310 310 308 307 308 311 317 321 321 320 320 319 318 317 318 318 317 318 318 317 317 317 316 316 317 317 318 318 319 319 319 319 319 320 320 320 320 320 319 319 320 320 320 320 320 319 318 319 319 320 323 324 322 324 326 324 325 327 324 324 327 328 328 327 325 323 325 326 326 327 328 326 321 323 326 322 321 328 330 331
322 321 320 322 321 314 309 310 310 308 308 308 312 320 323 321 322 324 322 319 317 318 320 319 318 317 317 318 317 316 316 316 317 317 318 318 318 318 319 318 318 319 320 320 320 320 320 320 321 320 319 320 320 318 319 320 319 321 322 322 325 325 322 323 324 323 325 327 328 329 330 329 329 329 329 329 329 329 326 326 333 337 328 325 337 340 334
322 321 320 321 322 317 310 310 310 308 308 308 312 320 324 322 324 324 321 321 321 322 323 321 318 317 319 318 317 316 316 316 316 317 317 318 317 317 318 318 317 318 319 320 321 321 320 320 321 322 320 320 320 319 319 319 319 321 321 323 325 325 324 326 324 322 325 327 328 330 330 329 330 332 332 333 333 333 333 335 338 341 338 337 344 348 345
322 322 320 320 323 319 312 309 310 309 307 310 315 322 325 326 327 327 324 323 323 324 323 320 318 318 319 319 318 317 317 316 316 316 317 318 318 317 317 317 317 317 318 320 320 320 320 321 321 321 321 320 321 320 319 318 319 321 321 322 325 324 326 333 329 321 322 325 327 328 329 328 328 329 332 334 335 336 337 339 340 341 343 344 346 348 347
322 322 321 320 322 321 314 309 310 309 307 312 318 320 322 324 324 325 328 326 323 323 321 318 318 318 318 319 318 317 316 316 317 317 317 318 318 317 317 317 317 317 317 318 318 318 319 319 319 319 319 319 319 320 319 318 319 320 320 322 324 323 326 330 328 321 320 322 324 325 327 327 325 325 328 332 335 336 337 339 339 340 343 344 342 342 343
321 323 322 320 321 323 317 310 309 310 307 310 317 318 319 323 323 323 328 327 323 323 320 318 319 318 318 319 318 317 317 317 318 317 317 317 318 317 318 318 317 317 317 318 317 316 317 317 317 317 318 318 318 319 319 318 318 319 320 322 324 325 325 327 325 321 320 321 323 323 323 324 323 323 325 329 335 338 337 337 338 339 341 342 340 339 342
320 323 322 321 321 323 320 312 309 310 308 308 313 315 317 321 324 326 328 325 322 322 319 317 318 318 318 319 318 318 318 317 318 319 318 317 317 316 317 317 318 317 317 317 316 316 316 316 316 317 318 318 318 318 319 319 318 318 319 321 324 325 326 327 326 322 320 323 324 322 322 322 322 323 323 326 332 336 336 335 337 338 339 340 340 340 342
319 322 323 322 321 322 322 315 309 310 309 307 309 312 313 316 323 328 330 325 322 321 319 317 319 318 317 318 318 318 318 317 317 318 318 317 316 315 315 316 317 317 316 317 316 316 316 317 317 318 318 318 318 318 318 319 318 318 318 320 323 326 325 326 326 323 322 324 322 320 322 323 323 323 324 324 327 333 334 334 336 337 336 337 339 339 340
317 321 323 322 321 322 322 318 311 309 309 308 308 310 311 314 320 328 330 326 322 321 319 318 319 318 317 318 319 318 317 317 317 317 318 318 317 316 315 316 317 316 315 317 317 317 317 318 318 318 318 318 318 318 317 317 318 318 318 319 321 325 326 325 324 324 323 321 320 321 324 325 324 324 325 324 325 330 332 331 332 335 335 336 339 340 341
316 319 323 323 322 322 323 320 314 310 309 309 308 309 310 311 316 324 328 327 322 321 321 319 317 318 318 318 318 317 317 317 317 318 318 318 317 316 315 315 316 316 316 317 318 317 318 318 318 318 319 318 318 319 318 317 317 317 318 319 320 323 326 325 323 324 323 320 321 323 325 326 326 326 325 325 325 327 329 329 330 333 335 337 338 339 341
315 316 320 323 323 323 323 322 317 311 309 309 309 310 311 310 311 317 323 327 325 321 321 319 318 318 318 318 318 317 318 318 318 318 318 318 317 316 315 316 316 316 317 318 318 318 318 318 317 317 317 317 318 318 319 317 316 317 318 320 320 321 325 326 323 323 323 322 322 323 323 324 327 327 324 325 324 324 326 328 328 330 335 337 338 339 340
313 313 316 320 323 323 323 323 319 313 310 309 309 310 312 311 309 311 319 325 326 321 321 321 321 320 318 319 319 318 319 318 318 318 318 319 318 316 315 317 317 318 319 319 319 318 317 317 316 315 316 318 317 316 317 317 316 316 318 320 321 320 323 325 323 322 323 322 320 321 322 325 327 326 324 324 324 322 325 327 326 327 332 336 337 338 340
312 312 313 316 320 323 323 323 321 315 310 310 310 310 312 313 311 310 315 322 324 322 321 321 321 320 319 318 319 319 320 320 319 319 320 320 318 317 316 317 317 318 320 320 319 318 317 317 316 314 316 319 317 316 317 317 316 316 318 319 320 321 321 322 321 320 321 322 320 321 324 326 325 324 324 324 323 322 323 324 323 325 329 333 336 338 339
311 311 313 314 317 320 323 324 322 316 312 310 309 309 312 313 312 309 312 319 323 322 321 319 319 321 321 319 320 320 320 320 319 320 321 320 319 319 317 317 318 318 319 320 320 319 318 319 318 315 317 320 319 317 317 317 316 317 318 319 319 320 320 320 319 319 319 320 320 321 324 325 323 323 325 325 323 323 323 323 323 324 327 331 334 336 337
310 311 313 314 317 319 323 324 323 318 313 310 310 310 311 313 313 310 311 317 321 322 320 318 318 320 320 320 321 320 319 320 321 320 320 321 321 320 318 318 319 319 320 320 320 320 319 319 319 318 317 319 320 319 318 318 318 318 319 319 319 318 318 318 318 318 319 319 319 321 323 324 323 325 327 327 326 324 324 325 325 325 326 329 332 334 336
310 311 313 315 317 320 322 323 323 319 313 310 310 310 310 311 312 310 311 315 319 321 320 318 318 320 319 319 320 319 319 320 321 320 321 322 321 319 319 319 320 319 319 320 320 320 319 319 319 319 318 319 320 319 318 319 320 320 320 320 318 318 318 317 318 319 319 317 317 320 322 324 325 327 328 328 327 325 325 326 327 327 327 329 330 332 334
310 312 314 315 317 320 321 323 322 319 313 311 310 310 310 310 310 310 310 310 314 320 322 318 317 319 319 320 321 320 320 321 320 320 321 321 320 321 321 321 321 320 320 320 320 320 320 320 320 320 320 320 320 320 319 320 320 321 321 321 320 320 319 317 318 320 319 317 318 321 322 323 325 326 326 325 324 324 325 326 326 326 327 329 331 331 331
312 314 315 316 317 320 321 322 322 317 313 311 311 310 310 310 309 310 309 309 312 317 319 317 317 318 318 318 318 318 319 319 319 320 321 320 321 321 321 322 322 322 321 321 321 320 320 320 320 320 320 320 319 320 321 320 320 320 321 321 321 322 322 321 320 320 321 321 322 323 323 323 324 324 325 325 323 322 323 325 325 325 327 328 331 332 331
314 315 316 317 319 320 321 322 321 317 312 311 311 310 310 310 309 309 309 309 311 315 316 317 318 318 317 318 317 317 318 318 318 319 320 321 321 321 321 322 322 322 321 321 322 322 321 320 321 321 321 320 320 320 320 319 319 321 321 321 322 322 323 323 323 322 322 323 324 324 325 324 324 323 323 323 323 322 323 324 325 325 327 328 330 332 331
315 316 316 317 319 320 320 321 320 317 312 310 311 311 310 310 310 309 308 310 313 316 317 318 319 320 321 320 318 318 318 318 318 318 318 319 320 321 322 322 321 322 322 320 321 323 322 321 321 321 321 322 321 320 320 319 320 321 320 320 322 322 321 323 323 322 321 323 325 326 326 325 325 324 323 322 322 321 322 323 322 323 325 328 329 331 331
316 317 316 317 319 320 320 321 320 316 312 310 311 311 310 310 310 308 309 311 314 317 319 319 320 321 321 319 318 318 318 317 318 319 318 318 319 320 322 320 319 322 322 319 319 321 322 321 321 320 322 323 322 321 321 320 321 322 320 321 322 322 321 322 322 321 322 324 325 325 325 324 324 324 324 323 323 322 321 321 321 321 323 325 326 329 331
317 318 317 318 318 319 319 321 320 317 312 310 311 311 310 311 310 308 309 310 313 316 318 320 321 320 319 319 318 318 318 318 319 319 319 318 318 319 320 319 318 319 320 319 321 323 322 322 321 320 321 322 321 322 322 322 321 321 321 322 323 321 321 322 322 321 323 323 323 323 324 324 324 324 323 323 323 323 323 322 321 321 323 324 325 326 328
317 318 318 318 318 318 317 319 320 318 313 310 311 311 310 310 310 309 308 309 313 316 316 318 321 321 319 320 319 317 317 319 319 319 319 319 319 319 319 319 319 320 319 320 322 322 321 321 320 320 321 322 322 322 323 322 322 321 321 323 323 320 321 322 321 320 322 323 323 323 322 323 324 324 323 322 322 323 324 323 322 322 321 322 323 324 325
317 318 318 318 318 317 318 319 321 319 314 310 311 311 310 310 310 309 308 307 312 317 319 319 321 322 320 319 319 317 317 319 320 319 320 319 319 320 320 320 321 321 320 321 322 321 321 321 320 321 322 322 322 322 322 322 321 320 321 323 321 320 323 323 321 321 323 324 324 322 321 322 324 323 323 323 322 323 323 323 322 322 321 321 322 323 323
318 318 319 319 318 318 319 320 320 320 315 311 310 311 311 310 309 309 309 307 308 315 320 320 320 320 320 320 320 318 318 319 320 319 320 320 320 320 321 321 321 321 321 321 321 321 322 321 321 323 323 322 322 322 321 320 320 321 323 324 322 322 324 322 321 322 322 322 322 321 321 322 323 323 323 323 322 322 323 323 323 322 321 321 321 321 321
318 318 319 319 319 319 319 319 320 320 316 311 311 312 314 315 311 308 309 309 308 314 320 320 318 320 321 321 321 320 318 319 320 320 319 320 320 320 321 321 321 321 321 321 320 321 321 321 322 323 322 320 322 322 321 320 321 323 324 324 323 323 323 322 322 323 322 321 322 321 321 323 323 322 323 322 320 321 322 322 322 321 321 322 322 320 319
319 319 319 319 319 318 318 318 319 319 315 311 312 315 317 318 315 310 310 312 311 314 319 319 318 320 321 321 322 321 319 319 320 320 320 321 321 321 321 322 322 322 322 322 322 322 322 322 323 323 322 320 321 322 321 320 321 322 323 323 323 323 322 322 322 322 323 323 322 321 322 322 321 320 321 322 321 320 321 322 321 319 318 320 322 320 319
319 319 319 320 319 318 318 319 319 317 313 310 313 316 318 318 315 312 313 314 313 315 319 319 318 318 320 321 322 321 320 320 320 320 321 322 321 321 321 322 322 322 322 322 322 322 323 323 323 324 324 321 320 321 322 321 321 322 322 321 322 322 322 322 322 321 322 322 321 320 321 321 320 320 322 322 321 321 321 322 321 319 318 320 321 320 320
319 319 319 320 320 319 319 319 317 314 311 310 311 314 318 318 315 313 314 314 314 315 318 319 318 318 319 321 322 320 320 321 320 320 322 323 322 322 322 322 322 322 321 321 322 323 323 323 323 324 324 323 322 322 323 322 322 323 322 321 322 322 322 323 322 322 322 321 320 321 321 321 321 320 321 320 320 320 320 320 320 320 319 320 321 321 321
318 318 319 320 320 320 320 319 315 311 311 311 311 313 317 318 317 315 315 315 315 315 315 317 319 319 318 320 322 320 320 321 321 320 322 323 321 321 322 322 322 322 321 322 323 323 322 323 324 324 324 324 323 323 323 323 323 323 322 322 322 322 322 322 322 322 322 321 321 321 321 321 320 319 319 320 319 319 319 319 320 320 320 320 320 321 320
318 319 319 320 321 321 319 316 312 310 311 311 311 313 315 316 316 315 315 316 317 318 316 315 317 318 318 319 321 321 321 321 322 321 322 322 321 321 322 322 321 322 322 322 322 323 323 324 323 323 324 325 324 323 323 323 323 323 322 322 322 322 322 322 322 322 322 321 321 321 320 320 320 320 320 320 320 319 319 319 319 319 319 319 320 319 319
319 319 319 320 320 318 315 312 310 312 313 312 311 312 314 315 314 313 313 314 315 317 318 317 315 317 318 319 320 322 322 322 323 323 323 322 322 322 322 321 321 323 323 323 322 323 324 324 322 323 325 325 324 324 323 323 322 323 322 322 322 322 321 321 321 322 322 321 321 321 321 320 320 321 320 320 320 319 319 319 319 318 318 318 319 318 318
319 319 321 319 316 313 312 311 310 312 313 312 312 313 316 317 316 315 315 315 314 314 317 317 316 316 318 318 321 323 321 321 322 323 322 322 322 322 321 321 322 323 323 322 323 324 324 324 323 322 324 324 324 325 325 323 322 322 322 322 322 321 321 322 322 322 322 322 321 321 321 320 320 320 320 319 319 319 318 318 318 318 318 318 318 317 317
318 319 319 315 312 314 315 313 310 312 314 313 314 317 318 318 318 318 318 318 316 315 315 316 316 317 316 317 320 322 321 322 323 322 322 322 322 322 322 322 323 323 322 323 324 324 323 323 323 322 324 325 324 324 325 324 322 322 323 323 323 322 322 322 322 321 321 322 321 321 321 320 320 320 319 319 319 319 318 318 318 317 317 317 317 317 317
319 319 316 312 313 317 317 313 312 314 316 316 316 318 318 317 317 318 319 319 319 318 316 315 316 316 315 314 318 321 322 322 322 321 321 322 322 322 322 323 323 323 322 322 324 323 322 323 323 323 323 324 323 324 325 324 324 324 324 323 322 321 321 321 321 321 321 321 321 321 320 320 320 319 319 319 319 318 318 318 317 317 317 317 317 317 317
319 317 313 312 315 316 315 314 316 318 318 318 317 318 319 318 318 318 318 318 318 318 318 316 316 317 316 317 319 320 320 322 322 320 321 323 322 322 323 323 323 323 322 323 323 323 321 322 324 323 322 323 324 324 323 323 325 325 323 321 319 318 319 320 321 321 322 322 321 321 320 320 320 320 320 319 318 318 318 318 317 317 317 317 316 316 315
318 315 312 312 315 316 316 317 319 318 318 319 318 317 318 319 318 318 319 318 317 318 320 318 317 316 316 317 319 320 320 322 323 322 322 323 322 321 321 322 322 322 322 323 323 322 321 323 324 321 321 324 324 321 319 321 322 321 319 318 318 318 318 320 320 321 321 321 321 320 320 320 319 319 318 318 318 317 317 317 317 316 316 315 315 314 314
315 313 313 314 315 316 317 319 319 318 318 319 317 316 316 318 318 318 319 319 319 320 321 320 319 318 316 316 319 321 322 322 322 322 322 323 322 320 321 321 321 321 322 322 321 321 321 322 321 320 322 325 323 320 321 322 321 319 318 318 318 318 320 321 321 320 321 321 320 318 318 318 317 316 316 316 316 315 315 315 314 314 314 313 313 313 313
313 313 315 316 317 317 317 318 318 318 317 316 315 315 316 317 317 318 319 319 320 322 322 322 322 320 317 316 320 322 322 322 322 322 322 322 322 321 321 321 321 321 321 321 320 320 321 321 319 320 323 323 321 321 323 323 321 319 319 319 318 319 320 320 319 319 318 318 317 316 316 315 315 315 314 314 313 313 313 313 313 313 313 312 312 312 312
314 315 317 318 317 316 316 317 316 317 317 315 315 315 316 316 317 317 318 319 320 322 323 323 322 318 317 317 319 321 321 322 322 323 323 323 322 322 322 322 321 321 320 320 320 320 320 320 319 321 323 323 320 320 321 321 319 319 319 318 318 318 318 317 317 317 316 316 315 315 314 314 314 313 313 313 312 312 312 311 311 311 311 311 311 311 310
315 317 317 317 316 315 315 315 315 316 317 317 316 316 316 316 316 316 318 320 322 322 323 324 322 319 319 320 320 320 321 322 322 322 323 323 322 322 322 322 321 320 320 320 320 319 319 320 319 320 323 324 322 320 320 320 320 319 318 318 317 317 317 317 316 316 315 315 314 314 313 313 312 311 310 310 309 308 309 309 310 310 310 309 309 309 309
317 317 316 317 317 316 315 314 314 316 318 318 317 317 316 316 316 318 320 322 323 323 323 324 323 321 320 321 322 322 323 323 322 322 323 323 322 322 322 321 321 320 320 320 319 319 319 319 318 320 323 323 321 320 320 320 319 318 318 317 317 316 316 316 315 315 314 314 313 311 310 309 308 307 306 306 306 307 308 309 309 309 309 309 308 308 308
318 316 315 316 316 315 314 314 315 317 318 318 318 318 317 317 318 319 318 319 322 324 325 325 324 323 322 323 323 323 323 323 323 322 322 322 322 321 321 321 321 321 320 320 320 319 318 318 320 323 323 322 319 319 319 319 318 318 318 317 316 316 316 315 314 313 312 310 309 308 307 306 305 305 305 306 306 307 308 308 308 308 308 308 308 308 308
317 316 315 314 315 316 316 316 316 316 316 316 316 317 317 317 318 319 319 318 321 324 325 325 325 324 323 323 323 323 323 323 323 322 321 321 321 320 320 320 321 320 319 320 320 319 318 320 321 321 320 320 319 319 319 319 318 318 317 316 315 315 314 313 311 309 308 307 306 306 306 305 305 305 306 307 307 307 307 308 308 307 307 307 307 307 307
316 315 315 315 316 317 317 316 316 315 316 316 316 316 316 317 318 320 320 320 321 324 325 325 325 324 324 323 323 323 323 323 322 321 321 321 321 320 320 320 321 320 319 319 319 319 320 321 319 317 317 319 319 319 318 318 317 317 316 315 314 313 311 309 307 306 306 306 306 306 307 307 307 307 307 307 307 307 307 307 307 307 306 306 306 306 306
316 315 315 316 316 316 316 316 316 316 316 316 316 316 316 317 320 321 320 320 323 325 324 324 324 324 323 323 322 322 322 323 322 321 321 321 321 321 321 321 320 319 318 319 319 319 320 319 317 316 318 319 319 318 317 317 316 315 315 314 312 310 308 307 306 306 306 306 306 307 307 308 307 307 307 307 307 307 307 307 307 306 306 305 305 305 305
316 316 316 317 317 316 316 316 317 316 315 315 316 316 316 318 322 322 321 321 324 325 324 323 323 323 321 321 321 321 322 323 322 321 321 322 321 321 322 322 320 319 318 319 319 319 319 319 318 318 318 318 318 317 316 315 315 314 313 311 309 307 307 307 307 307 307 307 307 307 307 307 307 307 307 307 307 307 307 307 306 305 305 305 305 305 305
315 316 316 316 316 315 315 316 316 315 315 315 316 316 316 318 321 322 321 322 324 325 324 324 324 321 319 320 322 322 322 322 322 321 321 322 321 321 322 322 321 320 320 319 319 319 318 317 317 317 317 317 317 316 315 314 313 311 310 308 307 307 307 308 309 308 308 308 308 307 307 307 307 307 307 307 307 307 307 306 305 305 305 304 304 304 304
Wind_Speed
13 15 16 17 17 18 18 18 18 13 9 6 3 1 4 5 1 4 5 5 3 5 3 3 2 1 4 3 2 2 2 3 3 3 2 2 1 1 1 2 3 3 2 2 1 0 1 1 1 2 3 4 3 4 7 7 7 5 1 1 2 2 4 5 6 5 1 4 6 6 5 8 12 12 11 10 10 11 10 9 7 7 9 8 6 8 3
12 14 15 16 17 17 17 17 18 15 11 8 5 1 1 2 2 2 4 5 4 5 3 3 3 3 4 4 4 3 2 4 4 4 4 3 3 2 2 2 3 4 2 1 0 1 1 1 1 1 2 3 4 4 6 6 4 1 2 2 3 3 2 4 6 7 7 6 7 9 9 9 9 9 9 7 8 11 10 8 5 6 10 11 9 8 3
11 12 14 15 16 16 17 16 17 15 12 9 7 2 1 3 3 3 3 4 4 3 2 1 1 4 5 5 4 3 2 3 3 4 5 5 4 2 2 2 2 2 1 1 2 1 2 1 1 1 2 2 4 5 6 5 3 3 5 2 4 3 2 2 6 8 8 7 6 6 8 10 8 5 5 6 9 10 8 6 5 6 8 10 10 6 4
10 11 13 14 15 15 16 16 16 15 12 9 6 2 2 4 4 5 5 5 4 2 0 3 3 3 5 5 3 3 3 4 1 2 2 3 4 3 2 1 2 1 1 1 3 1 1 0 2 2 1 2 3 6 7 5 4 4 4 3 3 3 1 2 1 0 1 2 2 1 3 8 8 6 6 8 9 10 8 8 8 7 7 8 10 8 3
9 10 12 13 14 14 14 14 15 16 13 9 6 2 2 4 3 2 3 5 5 4 4 4 3 3 4 4 3 4 3 4 2 0 1 2 2 1 2 1 2 1 1 1 2 2 1 1 2 1 1 0 1 2 5 5 6 4 2 2 3 3 0 2 4 6 6 5 5 3 3 6 6 7 7 7 8 9 11 10 6 5 7 7 8 10 9
8 9 11 12 13 13 13 13 14 15 13 9 5 2 3 3 1 1 2 3 3 3 4 3 3 5 4 2 3 4 3 2 1 1 1 0 1 2 1 1 2 2 1 2 1 2 2 2 2 0 1 1 2 2 0 4 6 3 0 1 3 2 1 1 3 7 8 7 6 6 7 7 6 6 5 5 7 8 11 8 2 2 5 3 1 6 6
8 8 10 11 12 12 12 12 13 14 13 9 6 2 2 2 1 2 4 3 1 1 2 2 5 6 4 3 4 5 4 2 1 1 1 2 1 3 2 2 3 2 1 3 2 2 1 2 3 1 1 1 2 1 2 2 4 2 2 1 1 1 2 1 1 7 9 7 6 6 8 10 9 9 8 5 5 4 3 1 5 3 1 2 3 5 6
7 8 9 10 11 11 11 10 12 13 12 9 6 3 1 1 1 1 4 4 1 1 2 4 5 5 4 4 4 4 4 3 3 1 2 1 1 1 1 3 2 2 1 2 1 2 2 2 3 0 2 0 2 2 2 3 3 2 2 0 1 3 2 1 2 4 8 7 6 6 8 11 13 12 11 8 6 6 6 6 7 4 3 4 4 8 9
7 7 8 9 10 10 10 9 10 12 11 8 6 4 3 1 1 1 3 4 3 3 4 5 5 5 5 4 4 5 4 3 4 3 1 2 1 1 1 2 1 1 1 1 3 4 3 2 3 1 2 2 3 3 4 5 4 2 2 1 2 4 3 1 4 3 6 6 3 5 7 9 13 14 13 11 8 7 8 9 8 7 5 2 4 5 5
7 7 8 8 9 10 9 8 8 10 10 8 5 5 5 2 1 2 3 3 3 4 4 5 5 3 3 4 4 5 5 5 4 2 3 2 1 1 0 1 2 2 3 4 4 3 2 1 2 2 3 4 4 4 5 6 5 3 2 1 2 3 3 2 3 3 5 4 3 1 6 7 7 10 10 9 8 8 9 9 10 10 8 4 1 2 4
8 7 7 8 8 9 9 8 7 8 9 8 5 6 6 3 2 1 4 4 5 5 5 6 5 2 4 6 7 5 6 7 4 2 2 5 2 1 2 3 3 1 3 4 4 3 3 3 5 4 4 4 4 3 4 6 7 5 4 3 1 3 4 2 1 3 3 1 6 6 5 6 4 5 6 7 7 9 10 11 12 10 8 4 3 3 5
8 8 8 7 8 8 8 8 6 6 8 8 6 5 6 4 3 1 4 5 4 6 6 5 3 3 6 8 8 7 7 7 3 1 3 5 3 2 2 3 3 1 4 3 2 4 5 7 6 5 4 3 2 2 3 6 6 6 5 4 3 4 5 3 1 3 1 3 5 4 4 5 5 4 6 6 4 6 10 13 14 11 9 8 6 5 6
9 8 8 7 7 7 7 7 6 5 6 7 6 5 5 5 4 2 4 5 4 5 5 3 4 5 8 9 8 7 7 6 4 4 4 4 4 3 3 2 1 2 3 3 5 5 5 6 5 3 3 2 2 1 3 5 5 6 6 5 4 3 5 3 2 1 1 1 2 2 3 4 4 4 7 6 2 2 5 10 14 12 9 9 8 6 6
11 8 8 8 7 7 7 7 6 4 4 5 6 5 5 5 5 3 3 5 3 3 4 3 6 8 9 10 10 8 8 8 7 6 4 3 3 3 4 2 1 2 2 4 6 6 4 3 4 4 4 4 5 3 1 2 3 6 6 5 4 3 3 4 3 1 2 3 1 1 2 4 4 3 6 6 4 5 4 5 10 11 9 8 7 6 6
12 10 8 8 8 7 7 7 6 5 4 4 4 5 4 5 5 4 1 4 4 3 5 4 5 10 11 11 11 8 7 7 6 5 4 3 2 3 4 3 1 2 3 4 5 5 3 3 4 4 4 3 2 1 0 1 1 3 4 4 3 2 3 3 4 2 2 4 4 2 4 4 3 4 5 5 4 6 6 1 6 9 9 7 5 4 5
12 12 10 9 9 8 7 7 7 5 4 4 3 4 4 4 5 4 1 3 5 3 4 2 3 9 11 10 9 7 5 5 4 4 5 5 4 4 5 3 1 2 4 4 4 4 4 3 3 3 1 1 2 1 1 2 1 2 2 3 1 2 2 3 4 4 4 5 6 5 4 1 4 5 6 7 4 3 5 2 3 8 9 5 4 3 4
12 13 12 10 10 9 8 7 7 6 5 4 3 3 3 4 4 4 3 2 6 4 1 2 4 8 9 7 6 5 4 4 3 3 3 4 5 6 5 4 3 3 4 4 3 4 4 3 2 2 1 3 1 2 2 3 1 1 2 1 0 2 3 4 5 5 5 6 5 3 2 3 6 6 8 8 4 1 5 4 2 7 9 5 3 3 3
13 13 13 11 10 10 9 8 8 7 6 5 4 4 3 3 3 4 4 3 5 4 1 5 8 6 5 5 5 5 5 5 4 3 2 4 5 5 4 5 4 4 5 4 3 3 3 2 1 1 3 4 1 2 0 1 1 2 3 2 1 1 1 2 3 4 5 6 5 3 3 4 5 7 8 7 2 3 3 0 2 6 8 5 2 2 3
13 13 13 11 8 7 9 8 8 8 7 6 5 4 4 3 3 3 3 3 4 3 1 7 10 5 3 5 6 6 6 5 4 4 3 4 5 5 4 3 3 3 4 4 3 2 2 2 1 2 2 4 2 1 1 1 1 2 2 2 0 1 1 1 2 1 2 4 4 3 4 4 7 9 5 4 3 2 2 3 2 5 6 4 3 1 2
13 13 13 9 5 6 8 9 8 8 8 7 6 5 5 4 3 3 3 3 5 4 1 6 9 5 3 4 4 6 8 6 5 5 2 2 7 7 5 4 4 4 4 4 3 2 2 2 3 2 1 3 2 1 2 2 1 1 2 2 2 2 1 2 1 1 1 4 3 2 3 5 11 10 3 3 4 3 3 3 3 4 4 2 2 2 1
13 13 12 8 6 6 7 8 8 8 8 8 6 5 6 5 4 4 4 4 5 4 2 5 7 6 5 5 4 6 5 4 5 4 1 4 8 5 2 2 3 3 2 2 2 1 1 0 2 1 1 2 1 1 1 3 4 2 2 2 1 3 2 1 3 2 2 2 3 2 3 6 11 9 5 6 7 5 4 4 6 7 6 2 1 1 0
12 12 10 6 6 7 7 8 8 8 8 8 7 5 6 5 4 4 5 5 5 5 3 3 6 8 8 8 10 10 7 5 6 4 1 4 7 4 2 3 3 0 0 1 2 1 1 1 1 2 2 2 2 1 0 1 3 5 2 2 1 3 3 3 3 3 3 3 5 5 5 5 7 8 8 7 6 6 6 6 7 8 8 6 4 2 1
10 9 6 3 4 6 7 8 8 8 8 8 7 6 6 6 5 4 4 4 5 6 5 4 5 7 8 9 10 11 9 8 8 7 4 4 6 4 3 2 2 2 1 3 3 1 2 2 0 0 2 1 1 2 2 2 0 3 2 1 3 3 1 3 2 3 4 5 5 6 6 6 6 6 6 6 6 6 7 7 8 9 9 7 5 3 2
8 7 5 3 4 6 6 7 8 8 8 8 8 7 7 6 5 4 3 3 4 5 5 7 7 7 8 10 10 10 9 8 8 8 7 5 4 4 4 5 4 3 4 4 1 2 1 2 1 2 1 2 1 2 2 1 1 1 1 3 5 4 3 2 0 3 3 3 6 6 6 6 5 4 5 6 6 6 6 7 8 8 8 7 6 4 2
7 6 4 4 4 5 6 6 7 8 8 8 8 7 7 6 5 4 3 2 3 4 5 8 9 8 9 11 10 9 10 9 7 6 5 4 5 4 2 6 7 4 5 6 5 3 2 1 1 2 1 2 1 2 0 1 1 1 2 1 4 4 4 3 1 2 2 4 7 6 5 5 5 4 4 5 5 5 6 7 7 8 8 7 7 5 3
9 7 5 4 5 6 6 6 6 7 9 9 8 8 7 6 5 4 3 3 3 5 6 6 8 8 9 10 8 9 11 10 6 4 2 3 5 4 2 6 8 6 7 7 5 3 2 2 2 3 1 1 2 1 1 1 1 1 2 1 5 4 4 2 1 2 2 4 6 6 4 6 6 5 5 6 5 5 6 6 6 7 7 7 6 5 3
9 8 6 5 6 7 8 7 7 7 8 9 8 8 7 7 6 5 4 4 3 3 6 7 7 7 7 8 9 11 12 8 5 3 1 1 3 5 5 8 8 8 8 7 4 3 3 2 2 1 1 2 2 1 1 1 0 3 3 3 4 4 3 2 2 4 2 3 6 6 2 2 6 7 6 6 5 5 5 6 6 6 7 7 6 5 3
10 9 7 6 6 7 7 7 7 8 9 8 7 8 7 7 6 5 5 7 6 4 5 4 6 7 8 8 10 11 11 8 4 3 3 3 5 6 7 8 8 8 8 5 4 4 4 3 2 2 3 2 3 2 1 1 3 4 3 5 6 4 2 2 2 2 2 5 6 5 2 1 5 7 5 5 5 4 4 5 5 5 5 5 5 5 4
10 10 8 7 8 8 6 6 6 7 8 8 6 6 6 6 6 6 5 7 8 5 5 4 4 6 6 7 8 11 11 9 6 4 5 6 7 7 8 8 6 6 5 4 3 3 3 1 1 2 2 3 2 2 3 3 4 3 2 6 6 4 2 3 3 3 2 3 4 4 2 1 5 6 5 4 3 2 4 4 4 4 4 4 4 4 4
10 9 8 7 7 7 6 7 7 7 8 7 6 5 5 5 7 7 6 6 8 6 5 5 4 5 5 5 7 9 11 10 8 7 7 8 8 7 7 6 5 4 3 3 3 3 3 3 2 2 3 3 2 2 2 3 3 2 5 5 6 5 4 4 3 1 1 3 4 4 3 3 5 5 4 3 1 0 1 2 2 2 3 4 4 3 4
8 8 7 7 7 7 7 7 7 7 8 8 7 5 4 4 6 7 7 7 7 7 5 5 3 5 6 6 6 9 12 11 9 9 9 8 7 7 6 6 5 4 3 2 3 2 2 3 4 4 5 5 4 3 2 3 3 2 6 6 6 6 5 5 5 3 3 5 6 6 5 5 5 4 3 3 2 1 1 0 1 2 2 2 2 2 3
8 7 7 8 9 8 7 6 6 7 8 9 8 5 3 3 6 9 8 7 7 6 5 5 4 4 6 7 7 10 12 12 10 10 8 7 7 6 5 5 4 3 2 2 3 3 2 2 3 4 5 6 4 3 3 5 4 2 6 6 6 6 6 6 6 6 5 7 8 6 6 6 6 4 3 4 4 2 2 1 1 3 3 2 2 2 3
7 6 6 8 9 8 7 5 5 7 8 9 9 6 4 4 7 10 9 7 6 5 4 4 4 3 4 6 8 12 14 12 12 11 8 6 7 6 5 5 4 3 4 3 2 2 2 2 3 3 5 5 5 3 4 5 3 1 5 6 6 7 7 7 7 7 8 9 8 5 4 5 6 4 4 5 4 3 3 2 2 2 3 2 2 2 2
6 5 5 6 7 9 7 5 6 7 7 8 8 7 5 5 8 9 8 6 5 4 4 4 3 3 5 6 7 12 15 13 13 12 9 6 8 7 5 6 6 4 4 4 3 3 3 3 3 3 3 5 5 4 4 4 3 2 4 6 6 7 7 7 8 8 9 10 8 4 2 4 6 6 5 5 5 4 3 3 3 3 3 3 3 2 2
5 4 4 4 6 7 6 5 6 7 8 8 8 8 7 6 7 7 7 6 4 3 4 4 4 3 6 5 5 11 15 12 10 10 8 7 8 7 5 6 6 4 3 3 4 5 4 3 3 3 3 5 5 5 4 2 2 4 6 7 8 9 8 8 9 9 10 10 9 6 6 6 6 6 6 6 5 5 4 3 3 4 4 3 3 2 3
4 4 4 5 6 7 6 6 7 8 8 8 8 9 8 6 5 5 5 5 5 4 3 4 4 5 6 4 4 9 14 11 8 8 8 7 7 7 6 6 4 2 2 4 6 6 4 3 3 4 3 4 5 5 3 2 3 5 6 7 9 10 9 8 9 10 10 10 9 8 7 7 6 6 6 6 6 5 4 4 4 4 4 4 3 2 2
3 4 6 5 7 7 6 7 9 9 8 8 9 9 7 5 4 3 3 4 5 5 3 3 4 5 4 2 3 9 12 10 8 9 9 8 7 6 6 6 3 2 3 5 5 4 3 3 4 5 5 5 6 5 3 4 5 5 6 6 8 9 9 7 8 9 10 10 10 9 9 8 8 7 7 6 6 6 5 5 5 4 4 4 3 3 3
4 5 5 5 8 6 5 8 10 10 9 10 10 7 5 4 3 2 2 3 5 5 5 5 4 4 4 2 3 9 9 8 7 8 8 7 6 5 5 5 3 2 3 4 3 3 3 3 4 6 6 7 8 7 6 7 7 6 6 6 7 8 9 9 10 11 11 10 10 11 10 10 9 8 8 7 7 7 6 6 5 5 4 5 4 4 5
5 5 5 8 7 4 5 10 11 11 11 11 8 5 3 4 3 3 3 3 4 4 5 6 6 7 7 5 5 7 7 6 7 7 6 6 5 4 4 4 3 2 4 3 4 5 4 4 3 5 5 5 6 6 6 7 8 8 8 8 8 9 9 10 10 11 10 9 9 10 10 10 9 9 9 8 7 7 7 6 6 6 6 6 6 6 7
5 5 8 9 6 4 9 13 14 13 11 8 6 4 3 4 4 2 3 3 4 4 5 6 5 7 7 6 4 7 8 7 5 4 5 5 4 2 3 3 3 3 5 4 4 5 4 4 3 5 4 1 1 2 2 4 6 8 10 11 11 10 9 9 10 10 9 7 6 7 7 6 6 6 7 7 7 7 6 6 6 6 7 7 8 9 9
3 5 8 9 7 9 15 15 13 10 7 5 4 3 2 3 3 3 3 4 4 4 6 6 5 7 9 7 5 6 8 6 3 2 4 5 3 4 4 3 2 3 5 2 4 4 4 4 4 5 2 1 2 3 3 4 4 7 9 12 13 11 10 9 10 9 8 7 6 6 6 5 4 5 5 5 5 6 6 6 7 8 8 10 11 12 12
5 8 9 10 11 14 15 11 8 5 4 3 3 2 1 2 3 3 4 4 3 3 6 7 5 6 10 9 5 4 7 7 5 4 4 4 3 4 4 2 2 4 3 1 3 3 4 4 5 4 1 4 3 4 4 4 4 6 8 9 10 10 9 9 10 9 8 7 6 6 5 4 4 4 5 5 6 6 8 9 10 11 12 12 13 14 15
8 10 11 13 14 13 9 5 4 3 2 1 2 2 2 3 3 3 4 4 3 3 6 7 5 6 9 9 5 4 6 7 5 3 3 4 4 3 3 2 3 3 0 2 2 4 4 5 5 2 4 6 5 5 6 7 7 8 8 9 10 10 10 10 10 8 7 6 5 4 4 3 3 5 6 7 8 9 10 12 13 13 13 14 14 15 16
12 12 11 11 10 7 5 3 2 2 1 2 2 3 4 4 5 4 3 4 5 6 8 9 8 8 8 8 7 5 5 6 4 3 3 4 4 3 3 2 2 1 1 2 4 4 4 5 4 1 5 7 6 7 8 9 9 10 11 11 11 10 10 9 8 7 6 4 3 3 3 4 5 6 8 9 10 11 12 13 13 13 13 14 15 15 15
13 11 9 5 4 3 3 2 1 2 2 2 3 4 3 3 4 3 3 3 4 7 9 9 9 9 10 9 7 5 5 5 4 3 3 3 4 4 2 1 1 2 2 4 4 4 4 4 3 4 6 7 7 8 10 10 11 11 11 11 11 10 9 8 7 5 4 3 3 3 5 7 9 10 10 11 12 13 13 12 12 13 13 14 15 16 16
12 9 6 3 1 3 3 2 2 3 3 3 4 5 4 2 1 3 4 4 5 8 10 10 9 10 11 8 4 4 5 5 4 3 3 3 3 2 2 1 2 3 4 5 5 5 5 4 2 5 7 8 9 10 12 12 12 11 11 11 11 10 8 7 5 4 3 4 6 7 8 9 10 10 10 11 11 10 10 9 10 11 12 13 15 15 15
9 8 6 2 1 3 3 3 2 1 1 3 5 5 3 1 1 2 3 3 4 7 10 10 9 9 9 6 3 3 5 5 3 4 4 3 1 1 1 2 4 4 5 5 5 5 4 2 3 6 8 10 11 12 14 14 12 11 11 11 10 9 7 6 4 4 5 5 6 6 6 7 7 8 8 9 9 8 8 8 9 10 11 11 13 13 13
6 6 4 1 1 3 3 2 2 2 3 3 4 3 1 1 3 4 4 3 4 8 11 11 9 8 7 5 4 5 5 5 4 3 2 1 1 2 2 4 5 4 4 5 5 4 2 4 6 7 8 10 12 14 15 14 13 12 11 10 9 8 6 5 4 4 4 3 3 3 3 5 6 7 7 8 8 8 8 8 8 9 9 10 11 12 12
5 5 3 1 1 2 2 2 1 3 4 4 3 3 4 4 4 4 4 4 6 9 11 10 8 6 5 4 4 4 4 4 3 3 2 3 3 3 3 4 5 5 4 4 3 2 4 6 5 7 9 12 13 14 15 14 13 12 11 10 8 7 5 4 3 3 2 2 1 1 3 4 6 6 6 7 7 7 6 6 7 8 9 9 9 10 10
4 3 3 3 2 1 2 2 1 3 5 6 5 5 5 5 4 4 5 6 8 9 9 7 5 4 3 3 3 2 3 3 3 3 4 5 4 3 4 5 5 4 3 2 2 3 5 5 6 8 11 13 14 14 15 14 13 12 11 9 8 6 5 4 4 3 2 1 1 2 3 4 5 5 5 6 6 4 4 4 6 7 7 7 7 7 8
3 2 4 5 4 3 4 3 2 2 4 6 6 5 4 3 2 4 6 9 10 9 8 7 5 3 3 3 3 2 3 4 3 3 4 4 3 3 5 5 4 3 2 2 3 4 4 5 7 10 13 15 15 15 15 14 13 12 10 8 7 7 6 6 5 4 2 1 1 3 3 3 3 3 3 3 3 2 2 3 5 5 5 6 6 7 8
4 3 3 5 6 6 5 3 4 3 3 3 3 3 2 1 1 3 8 12 12 9 8 8 6 4 3 4 3 3 4 4 4 4 4 4 4 4 5 4 1 1 2 2 3 4 5 6 9 12 15 16 17 16 15 14 12 11 10 9 8 8 7 6 5 4 2 1 1 2 2 2 2 2 2 2 2 1 1 3 4 5 5 6 7 8 8
Wind_Direction
343 349 349 351 352 352 355 358 2 1 354 353 344 191 199 226 158 113 191 185 166 250 238 143 195 123 93 103 90 62 348 337 355 359 345 336 334 353 28 17 20 34 18 343 302 340 30 82 132 138 127 92 52 332 330 308 278 274 282 48 14 313 254 243 241 230 194 98 152 207 247 221 206 210 217 217 216 215 223 236 225 216 223 219 233 242 182
337 344 347 350 350 352 354 357 2 2 355 357 359 348 223 222 104 112 206 187 191 251 247 165 172 124 137 166 136 108 44 21 16 16 27 14 326 324 45 36 26 39 19 343 1 334 315 146 105 110 142 83 44 345 338 322 287 286 45 2 331 314 265 234 228 210 189 172 177 191 202 213 218 212 209 229 238 224 228 243 235 228 225 214 226 241 182
331 339 345 348 349 351 352 355 3 4 355 352 354 359 188 195 163 148 185 182 205 271 324 291 194 143 172 181 156 161 132 64 21 16 40 33 352 336 57 40 9 37 42 90 103 316 288 196 139 160 155 99 47 6 355 351 358 63 89 47 303 303 341 280 237 216 199 186 179 185 191 200 211 207 197 224 239 231 231 235 223 227 225 212 225 241 127
325 335 340 345 349 350 351 354 1 4 358 348 346 356 209 229 204 171 168 180 208 231 25 266 250 177 189 184 175 216 170 113 83 349 41 50 21 8 47 7 284 240 215 184 114 118 302 116 170 181 156 119 61 5 352 12 31 47 89 67 309 286 24 15 341 194 183 136 79 22 187 185 187 187 192 208 222 230 235 232 227 226 222 220 228 233 180
320 330 336 342 348 349 350 353 359 4 1 347 341 347 265 253 230 190 173 178 202 201 183 221 233 189 205 189 168 219 205 137 145 195 26 43 28 6 42 344 278 276 228 237 108 107 151 136 155 173 347 297 135 350 339 12 27 13 72 66 307 288 17 32 63 77 78 80 73 74 142 166 173 176 184 193 200 217 228 233 252 248 231 229 217 220 225
316 325 331 337 344 349 350 352 359 3 1 355 349 326 264 247 231 284 230 202 210 202 178 204 212 189 199 191 176 209 215 187 173 120 116 108 295 268 197 66 354 13 340 265 198 145 170 144 128 36 353 281 232 208 247 28 24 354 284 33 313 295 279 323 89 97 91 90 91 95 115 122 119 126 141 170 181 205 224 231 339 333 244 264 200 204 220
312 319 326 333 340 347 349 352 1 4 1 5 6 325 263 270 297 187 209 228 263 78 114 192 204 189 184 187 196 212 214 181 118 37 219 190 337 287 247 83 32 19 341 278 233 169 207 146 120 46 357 321 298 216 143 54 26 348 291 24 27 226 221 275 128 115 100 96 108 109 109 106 93 82 80 105 131 137 195 161 32 18 275 10 64 117 89
308 311 319 329 334 343 349 351 3 6 3 14 19 1 344 324 327 176 207 229 219 145 176 199 198 181 185 194 185 203 223 171 133 122 283 241 122 240 214 96 50 21 24 266 200 85 5 40 104 51 291 328 347 13 47 0 1 7 327 353 179 225 213 306 282 153 115 106 123 127 116 102 85 67 57 66 86 80 65 45 23 13 38 56 112 113 87
302 302 313 324 328 337 346 351 5 11 10 20 28 14 19 29 14 355 244 225 181 177 194 204 211 194 196 199 174 186 203 159 138 128 31 2 64 156 151 123 106 42 95 103 81 73 31 23 76 20 345 44 34 35 27 348 330 345 358 328 259 251 209 196 261 212 132 117 122 138 145 119 84 57 39 40 54 69 64 47 33 22 5 357 156 128 96
298 293 302 315 323 332 340 349 7 15 17 27 33 21 17 2 346 323 274 232 184 194 193 197 218 206 173 173 177 185 171 150 156 148 124 138 72 58 148 227 243 207 140 93 52 38 15 41 92 97 86 77 66 60 48 20 3 357 341 302 264 267 241 206 250 228 154 126 17 321 197 167 87 42 20 23 44 76 79 54 40 27 356 325 183 67 84
297 286 290 303 316 325 332 344 3 16 22 32 33 27 26 12 353 317 269 240 200 200 205 204 212 187 146 168 180 177 158 156 177 268 165 156 144 115 186 239 263 222 107 76 41 34 65 110 119 118 115 101 85 72 57 47 36 18 343 304 267 249 242 217 262 250 190 85 339 301 212 166 90 33 8 14 38 65 71 55 41 31 19 29 56 57 111
302 280 279 292 306 316 326 335 350 10 21 31 30 22 21 19 19 307 264 252 200 192 213 214 199 180 178 181 180 172 164 160 165 213 160 144 141 156 171 216 247 124 92 95 115 114 119 131 136 134 132 120 98 79 51 46 42 30 11 340 303 235 223 201 179 257 268 7 319 260 165 110 93 60 24 12 33 67 74 63 47 33 34 51 64 82 117
312 283 267 278 295 304 314 324 335 356 11 23 28 17 9 20 29 0 284 269 224 200 218 199 157 185 191 178 172 162 151 145 141 143 142 137 149 168 169 188 196 92 105 154 165 166 157 146 154 171 166 184 221 212 44 37 29 25 22 0 324 265 220 196 172 227 224 351 293 231 125 108 130 82 23 7 10 47 70 67 49 30 33 50 58 72 95
323 300 267 266 282 291 297 309 319 331 348 8 21 11 2 19 25 12 302 271 248 205 226 205 170 188 190 170 162 153 139 146 151 139 135 145 152 151 153 154 110 103 155 172 174 192 201 172 184 199 190 209 225 208 107 45 27 22 20 9 340 303 246 204 189 205 201 177 123 35 180 173 151 84 19 6 4 342 337 58 53 31 30 48 58 78 100
324 317 286 265 268 277 282 289 301 311 317 340 7 4 357 9 14 12 314 273 276 216 216 232 189 183 182 167 160 157 151 159 159 140 140 158 148 129 136 142 141 163 188 191 191 202 214 207 211 210 200 218 241 173 140 270 52 44 22 6 348 304 282 236 198 190 207 176 142 156 215 194 111 68 28 4 347 330 317 25 66 31 21 35 46 71 112
318 319 304 277 261 265 269 270 280 293 293 302 338 352 342 347 358 7 1 265 278 240 194 214 188 176 172 161 161 174 177 165 162 159 161 165 156 137 137 141 150 178 187 192 195 205 216 219 229 235 210 33 359 342 315 300 251 102 42 7 1 191 217 236 213 188 195 199 178 182 207 165 48 35 17 6 358 321 288 232 83 25 9 22 36 57 117
310 314 310 289 263 255 256 258 264 272 274 279 292 310 323 332 344 359 7 264 265 269 173 160 179 175 170 163 165 178 168 148 170 201 174 154 152 146 148 155 157 184 200 200 187 196 212 212 224 233 137 75 3 281 294 303 278 76 29 6 128 176 183 206 213 189 190 209 195 162 142 70 36 3 353 0 10 250 249 220 90 12 353 7 34 51 91
305 310 308 294 269 251 248 249 251 257 261 262 266 276 291 311 328 349 356 293 259 265 207 187 191 184 176 170 160 156 149 151 182 212 156 144 157 155 154 164 172 187 208 222 211 198 201 191 221 242 119 107 270 274 338 315 334 35 352 331 107 150 193 225 226 187 184 210 198 135 99 63 13 345 348 355 330 236 245 219 30 346 337 348 12 51 80
303 308 305 297 278 251 247 248 244 248 254 250 255 269 268 279 311 331 341 307 270 276 201 194 200 199 168 158 148 152 164 170 186 203 188 156 153 145 141 173 205 203 203 220 221 209 208 164 156 277 160 140 177 270 78 22 15 32 323 298 90 122 172 207 229 177 166 203 196 148 117 61 351 330 332 342 299 244 66 52 7 337 336 336 332 15 92
302 307 306 296 266 237 245 248 240 241 248 244 246 259 258 259 280 292 316 313 281 282 242 192 201 200 173 171 164 166 177 186 198 216 245 122 145 166 183 189 194 190 194 212 212 210 235 160 142 238 247 124 135 196 126 125 101 17 324 322 6 346 281 172 145 39 196 185 178 165 132 50 354 330 320 7 10 46 52 38 41 26 7 328 311 339 49
297 304 308 290 244 225 243 250 240 236 240 241 241 252 260 260 260 268 288 293 273 271 229 183 195 198 192 197 194 179 175 178 188 211 273 118 153 194 244 127 148 180 196 214 203 183 273 152 133 186 308 88 135 207 143 144 146 132 310 303 14 356 328 69 85 25 285 193 126 86 88 39 9 7 49 52 45 54 27 10 36 36 25 21 32 16 1
292 303 313 292 229 218 238 247 239 233 233 236 235 240 253 257 257 264 275 275 270 267 247 198 198 197 192 189 185 183 182 174 172 186 208 156 171 220 308 106 138 169 348 247 245 160 164 192 171 175 172 149 156 159 297 270 143 135 181 251 32 33 358 353 35 40 18 41 69 75 84 66 40 47 65 58 47 45 27 18 29 29 22 20 24 40 82
290 302 317 302 219 227 244 245 237 232 231 233 231 231 242 251 254 265 277 280 275 265 245 224 208 193 184 179 174 173 174 175 171 172 179 177 182 209 231 194 166 125 159 254 295 345 158 173 175 261 170 142 157 172 194 268 126 122 147 144 85 78 336 312 351 98 91 73 81 94 97 91 79 74 74 64 52 46 35 28 30 28 26 22 20 34 63
282 293 302 281 237 241 252 250 239 231 227 229 229 229 237 244 248 261 282 287 274 258 230 213 206 191 174 167 162 157 156 160 163 165 174 193 208 211 204 200 191 162 177 210 263 39 118 114 53 277 201 114 248 235 191 183 108 96 157 147 127 142 207 265 298 150 159 123 108 111 107 103 105 109 100 81 63 58 51 42 38 33 31 39 50 57 64
263 275 289 278 244 242 257 259 244 231 227 228 228 227 231 237 241 248 262 261 252 253 229 199 191 189 180 168 160 155 154 151 146 153 168 203 244 264 190 175 188 186 166 163 152 157 192 153 171 237 190 123 243 267 17 80 80 90 243 204 118 144 195 216 173 161 147 106 110 116 120 123 124 119 113 105 83 71 66 55 48 41 36 47 61 67 70
245 254 269 268 250 252 265 267 252 237 228 225 225 224 223 228 233 236 242 243 248 264 255 207 179 181 184 174 168 167 162 149 137 140 167 206 229 250 214 175 183 176 157 155 155 181 211 210 234 246 200 145 225 276 35 57 86 224 259 39 84 129 176 159 126 178 159 127 139 148 153 153 147 124 103 103 94 81 75 65 57 52 45 45 51 61 78
240 247 258 255 250 254 257 257 254 245 233 225 223 222 219 224 233 235 231 222 212 236 242 212 178 171 178 180 182 178 166 153 143 149 164 203 195 196 187 175 169 162 157 154 150 174 204 217 227 236 84 111 174 243 358 35 209 255 248 140 133 183 189 135 178 225 216 123 140 157 200 173 135 124 108 97 89 81 78 70 61 54 47 42 38 41 58
237 240 243 243 252 260 259 256 253 243 233 227 222 218 217 223 231 233 226 218 215 246 275 240 184 179 188 191 192 185 172 162 161 149 129 132 145 152 157 159 159 163 169 170 171 191 213 219 171 120 104 134 185 194 153 163 232 259 243 165 175 214 209 173 241 288 40 78 115 152 247 339 110 121 116 100 88 73 69 67 57 48 41 35 32 30 31
235 236 242 246 249 252 256 264 262 242 230 225 217 215 219 227 233 232 223 215 214 234 279 268 193 186 190 182 182 185 177 165 161 147 129 130 134 136 143 150 159 168 175 190 206 206 203 182 96 97 137 180 212 195 176 205 228 228 134 148 178 206 205 215 279 329 45 104 124 153 201 151 125 129 119 109 104 72 64 64 56 49 39 27 26 23 18
233 238 248 249 243 238 240 254 258 243 226 214 201 201 210 224 231 226 213 206 203 205 237 247 206 175 168 158 164 176 175 167 162 154 142 136 133 131 136 140 143 149 163 189 203 195 174 160 139 112 142 173 225 235 204 230 239 159 117 144 184 198 196 204 227 270 149 148 143 152 161 136 134 138 133 133 157 47 55 44 30 41 42 35 29 8 355
232 241 247 242 240 242 247 250 247 233 217 201 189 192 207 217 212 199 189 190 187 186 220 246 213 160 168 174 172 171 170 169 165 155 146 143 139 136 137 139 138 148 162 155 153 166 180 167 156 145 155 183 229 264 246 249 254 166 134 153 181 186 187 190 184 169 152 146 151 163 165 153 157 174 178 172 176 192 166 55 340 314 334 26 29 352 338
227 236 242 242 242 242 244 241 232 221 209 195 188 193 212 208 188 178 173 173 172 180 217 232 206 177 179 178 174 172 170 170 169 163 158 158 158 154 153 153 148 152 153 143 154 175 184 177 175 165 162 181 216 258 246 249 263 144 132 146 165 172 179 183 180 181 176 165 165 177 188 186 192 201 181 167 170 176 172 165 274 286 298 334 344 323 324
220 230 247 253 244 234 233 229 217 212 203 192 189 193 196 185 174 170 168 166 165 178 220 227 211 192 167 157 166 174 174 175 180 180 174 172 177 179 178 173 170 171 173 183 195 173 161 207 211 173 157 183 219 252 249 244 255 147 143 157 164 169 178 184 182 183 182 177 182 204 214 187 180 181 177 177 185 193 195 208 251 276 282 286 284 298 317
215 228 255 261 239 225 225 219 205 199 190 184 189 192 183 167 166 171 174 171 166 180 213 230 236 196 158 156 174 180 179 183 191 190 185 179 184 190 191 186 190 200 206 214 224 201 192 218 226 193 169 191 216 246 253 241 232 201 181 174 169 171 179 185 186 186 185 184 189 198 178 155 161 174 185 190 198 208 216 228 247 258 263 262 259 270 295
222 228 254 267 235 214 209 206 195 184 176 179 187 189 181 170 171 180 183 177 180 197 205 215 238 210 173 177 188 182 182 188 196 193 187 181 185 194 201 200 203 209 204 209 227 227 214 204 219 220 187 181 205 237 251 235 194 191 189 183 179 182 187 192 195 193 188 188 189 188 182 179 179 183 185 186 192 205 217 226 237 247 252 251 254 267 284
231 236 264 265 229 199 190 190 179 165 167 181 184 180 180 178 181 194 196 192 204 219 199 197 219 217 203 199 167 169 181 190 188 180 179 179 184 196 210 216 213 195 181 214 238 239 207 175 221 240 205 193 229 250 248 231 213 200 195 190 187 191 197 201 199 193 189 191 194 193 192 196 197 196 197 196 197 204 214 221 227 234 236 236 241 255 270
233 268 280 247 198 176 175 183 175 166 171 177 170 168 172 173 179 202 211 210 223 232 227 224 223 214 225 252 130 158 181 189 181 181 189 192 191 197 210 219 211 171 201 228 237 224 176 176 230 251 238 234 253 260 231 226 229 210 201 198 193 195 201 199 189 184 184 188 195 199 202 208 211 210 212 213 211 214 219 219 219 219 222 229 237 248 260
250 285 275 200 171 166 175 178 172 168 165 160 157 160 166 169 187 206 192 210 232 227 220 238 235 202 217 244 155 163 180 186 184 192 198 195 192 193 204 214 203 177 231 236 183 160 183 203 227 251 256 254 259 262 247 237 232 213 203 200 190 191 197 192 184 182 183 189 200 205 207 214 220 223 228 229 223 221 222 220 219 223 229 237 244 252 260
258 267 210 172 169 187 180 166 162 158 154 154 160 170 170 173 196 194 170 194 228 201 194 223 229 203 204 206 170 165 180 187 191 196 193 190 197 195 193 200 181 189 251 246 154 164 224 239 216 238 258 255 254 261 254 237 224 212 206 202 196 197 200 196 193 195 199 209 217 213 211 220 229 231 231 230 223 221 223 222 225 232 240 245 250 255 262
255 236 182 172 187 193 162 154 153 152 151 157 173 188 182 187 201 193 168 195 214 193 188 208 208 194 205 215 186 177 189 197 204 203 184 179 188 188 186 185 164 192 248 240 151 166 243 260 222 236 260 255 194 222 214 200 201 205 209 212 212 212 209 202 198 199 201 206 206 198 198 210 221 221 220 220 220 224 228 227 232 241 249 255 259 263 266
210 183 167 171 182 165 150 147 151 154 158 170 181 183 191 192 190 194 202 213 211 187 181 190 186 184 198 211 200 179 182 187 211 223 180 160 167 200 203 178 158 220 250 222 137 168 243 259 244 252 273 93 145 178 168 161 179 195 206 212 214 215 213 203 194 191 186 177 170 171 174 178 182 191 201 209 216 227 236 241 250 258 263 267 269 271 271
156 160 159 160 159 151 146 147 154 159 173 186 174 176 228 210 185 198 218 228 227 179 175 187 187 166 172 181 180 160 164 168 177 201 189 159 166 208 212 168 183 230 245 115 128 196 242 249 255 264 116 117 157 175 156 150 170 181 188 195 196 193 186 174 165 163 160 155 157 166 172 172 184 204 219 227 236 250 261 267 270 272 272 272 273 272 272
146 153 153 153 152 149 148 153 158 153 161 174 155 171 211 209 205 212 213 211 209 178 164 165 153 134 149 163 157 132 149 161 165 181 183 159 156 191 210 206 216 234 231 112 193 235 240 242 258 264 116 130 160 166 152 155 163 162 160 164 164 158 155 156 158 161 164 168 180 193 195 201 225 246 261 268 270 272 276 277 276 275 275 274 273 272 272
151 151 152 153 153 154 155 160 161 164 189 201 197 201 202 199 203 208 191 175 178 173 164 165 167 159 155 161 160 148 153 167 175 171 157 152 164 190 209 210 206 192 147 215 235 244 244 247 256 209 133 145 164 167 160 160 159 154 149 149 151 151 153 158 162 165 171 184 207 225 235 254 267 275 281 281 278 278 279 277 276 276 276 276 276 276 275
158 153 149 144 148 165 168 159 185 215 214 199 206 221 224 211 200 188 153 134 152 160 159 163 165 154 144 150 163 164 157 168 184 174 147 161 198 208 200 185 187 196 226 239 240 239 238 238 218 159 150 156 166 168 162 156 156 158 154 148 146 149 151 151 151 155 169 204 242 257 266 276 280 281 281 280 280 282 281 281 281 282 282 281 281 279 277
162 159 156 148 167 194 193 178 180 199 202 198 214 230 239 239 166 123 116 123 146 156 156 155 151 146 146 150 156 153 155 166 172 154 146 181 218 203 156 163 211 224 240 246 241 237 242 240 180 142 151 159 166 168 163 157 157 160 158 153 152 155 156 160 168 185 214 248 265 273 278 282 284 285 288 290 292 292 290 289 289 287 283 281 280 279 278
164 169 177 170 135 183 205 211 204 218 237 211 216 227 240 243 165 139 135 143 148 146 145 143 138 140 147 149 134 140 168 184 175 150 161 196 213 135 159 219 228 227 231 234 235 240 241 208 132 131 150 164 169 168 164 161 160 160 160 162 165 167 172 182 201 227 249 265 275 280 284 287 291 295 298 299 299 300 300 297 291 285 280 278 279 279 279
164 170 182 172 150 190 198 189 202 255 274 243 221 221 231 225 205 179 162 163 162 153 152 151 147 144 150 160 156 152 167 182 175 156 173 219 179 143 201 236 239 232 227 227 232 237 202 134 131 146 161 169 171 168 164 162 160 162 165 167 167 170 179 194 220 247 261 267 271 281 292 298 301 304 306 306 305 305 303 299 295 293 290 288 285 283 281
169 170 180 200 246 227 187 118 149 238 245 243 237 223 214 216 207 176 156 159 166 163 160 159 157 152 152 166 168 158 165 183 181 163 180 209 205 195 218 240 239 232 225 228 230 198 122 116 139 167 168 165 165 164 161 161 161 162 163 165 167 174 187 200 210 223 222 205 213 287 316 319 317 316 313 307 303 302 303 304 305 304 301 298 295 294 292
180 187 206 220 232 176 141 140 224 230 210 207 213 217 216 216 205 183 172 169 165 161 160 162 162 150 143 163 184 184 176 183 185 178 193 208 215 215 228 239 243 235 215 201 186 138 123 133 160 169 163 161 162 160 159 161 164 163 162 168 176 180 180 175 171 173 173 185 270 331 341 333 323 318 310 303 303 308 314 314 312 311 311 313 315 315 313
193 222 231 233 229 176 151 169 241 237 195 188 191 200 210 216 193 173 169 167 166 169 172 169 161 145 149 177 195 178 160 170 189 203 210 215 217 217 227 238 245 240 224 178 136 131 142 161 172 170 165 163 162 160 160 163 166 167 168 173 174 167 159 156 157 158 154 141 347 344 338 323 317 319 318 319 331 344 333 321 324 328 333 337 338 335 330
198 209 218 226 227 215 207 228 257 245 209 190 190 199 206 193 141 162 170 172 177 187 188 179 174 177 181 179 169 149 152 180 206 215 216 215 212 223 244 265 281 260 255 214 156 159 175 180 179 178 175 169 164 163 165 167 169 170 170 166 160 156 155 155 156 157 149 121 353 325 317 319 329 347 2 11 16 18 355 344 350 355 358 0 360 356 354